Other Public Products
Issued by NWS Charleston, SC

Current Version | Previous Version | Graphics & Text | Print | Product List | Glossary On
Versions: 1 2 3 4 5 6 7 8 9 10 11 12 13 14 15 16 17 18 19 20 21 22 23 24 25 26 27 28 29 30 31 32 33 34 35 36 37 38 39 40 41 42 43 44 45 46 47 48 49 50
062 FPUS82 KCHS 250312 OPUCHS TEST...KCHS/KSAV Gateway Observations...TEST National Weather Service Charleston SC 1100 PM EDT MON JUL 24 2017 NOTE: "fair" indicates few or no clouds below 12,000 feet with no significant weather and/or obstructions to visibility. SCZ050-WAZ558-NCZ071-TXZ119-213-PAZ071-DCZ001-FLZ074-172-MI076- NYZ176-178-MAZ016-IL014-TNZ027-NJZ106-GAZ044-MD014-250400- ...Gateway Observations for Charleston International... CITY SKY/WX TMP DP RH WIND PRES REMARKS Chas Airport CLOUDY 75 72 90 SE5 30.01S Seattle PTCLDY 76 53 44 NW9 29.95R Charlotte CLOUDY 80 72 76 S6 30.00R Dallas DFW CLEAR 85 74 69 SE8 29.95R HX 92 Dallas Love CLEAR 84 73 69 SE12 29.96R HX 90 Philladelphia CLOUDY 70 67 90 E9 29.89F Wash National MOCLDY 83 71 67 NW15 29.87R Baltimore MOCLDY 73 72 96 NW5 29.88R Miami PTCLDY 85 77 77 SE8 30.11R HX 95 Detroit PTCLDY 65 53 65 N5 30.10R Newark CLOUDY 66 59 78 E7 29.94R Laguardia CLOUDY 66 59 78 NE15 29.94R J F K CLOUDY 64 61 90 CALM 29.96R Boston Logan DRIZZLE 59 58 96 N14 29.95R FOG Ft. Lauderdale MOCLDY 85 78 80 SE7 30.10R HX 96 Chicago O`Hare MOCLDY 68 59 73 NE7 30.11R Chicago Midway PTCLDY 69 58 67 NE8 30.10R Houston Bush PTCLDY 84 72 67 S8 30.00R Houston Hobby MOCLDY 83 73 72 S6 30.00R Nashville MOCLDY 85 73 67 CALM 30.01R HX 91 Atlanta MOCLDY 75 71 87 SW6 30.05R $$ GAZ044-118-TXZ119-213-NCZ071-DCZ001-MDZ014-506-PAZ021-071-NJZ106- NYZ176-178-MAZ106-OHZ011-021-055-MIZ076-KYZ091-ILZ014-INZ047- MNZ060-ONZ431-250400- ...Gateway Observations for Savannah International... CITY SKY/WX TMP DP RH WIND PRES REMARKS Savannah Arpt CLOUDY 77 74 90 W6 30.01F Atlanta MOCLDY 75 71 87 SW6 30.05R Charlotte CLOUDY 80 72 76 S6 30.00R Dallas DFW CLEAR 85 74 69 SE8 29.95R HX 92 Houston Bush PTCLDY 84 72 67 S8 30.00R Wash National MOCLDY 83 71 67 NW15 29.87R Wash Dulles CLOUDY 80 66 62 NW8 29.89R Baltimore MOCLDY 73 72 96 NW5 29.88R Philadelphia CLOUDY 70 67 90 E9 29.89F Newark CLOUDY 66 59 78 E7 29.94R Laguardia CLOUDY 66 59 78 NE15 29.94R J F K CLOUDY 64 61 90 CALM 29.96R Boston DRIZZLE 59 58 96 N14 29.95R FOG Pittsburg CLOUDY 67 57 70 NW8 30.04R Akron PTCLDY 64 52 64 N9 30.07R Cleveland PTCLDY 68 53 58 N20G28 30.08R Cincinnati CLEAR 73 64 73 NE13 30.06R Columbus CLEAR 67 59 76 N7 30.07R Detroit PTCLDY 65 53 65 N5 30.10R Chicago O`Hare MOCLDY 68 59 73 NE7 30.11R Minneapolis MOCLDY 71 59 65 SE12 30.03S Indianapolis CLEAR 72 61 68 NE12 30.06R Toronto Canada DRIZZLE 61 57 88 N15 29.98R $$

USA.gov is the U.S. government's official web portal to all federal, state and local government web resources and services.